Regional Weather Roundup
Issued by NWS

Home | Current Version | Previous Version | Text Only | Print | Product List | Glossary On
Versions: 1 2 3 4 5 6 7 8 9 10 11 12 13 14 15 16 17 18 19 20 21 22 23 24 25 26 27 28 29 30 31 32 33 34 35 36 37 38 39 40 41 42 43 44 45 46 47 48 49 50
000
ASUS43 KFSD 050802
RWRSD

WEATHER ROUNDUP FOR SOUTH DAKOTA
NATIONAL WEATHER SERVICE SIOUX FALLS SD
300 AM CDT WED AUG 05 2015

NOTE: "FAIR" INDICATES FEW OR NO CLOUDS BELOW 12,000 FEET WITH NO
SIGNIFICANT WEATHER AND/OR OBSTRUCTIONS TO VISIBILITY.


SDZ001>005-009-010-012>017-050900-
NORTHWEST AND NORTH CENTRAL SOUTH DAKOTA

CITY           SKY/WX    TMP DP  RH WIND       PRES   REMARKS
FAITH            N/A     67  59  75 SE10      29.97F
MOBRIDGE       PTCLDY    69  64  84 S10       29.97R
$$

SDZ012>016-024>037-041>051-057-063-072>074-050900-
SOUTHWEST AND SOUTH CENTRAL SOUTH DAKOTA

CITY           SKY/WX    TMP DP  RH WIND       PRES   REMARKS
RAPID CTY ARPT CLOUDY    64  61  90 SE3       30.00F
PIERRE         MOCLDY    67  62  84 E8        29.97F
CUSTER         PTCLDY    60  52  74 CALM      30.13F
ELLSWORTH AFB  DRIZZLE   66  60  81 SW6       29.99
PHILIP         MOCLDY    68  65  90 VRB5      29.98R
PINE RIDGE     CLOUDY    67  59  75 S6        30.03S
WINNER         FAIR      67  64  90 SE7       29.99F
$$

SDZ004>011-016>023-039-040-050900-
NORTHEAST SOUTH DAKOTA

CITY           SKY/WX    TMP DP  RH WIND       PRES   REMARKS
ABERDEEN       PTCLDY    60  56  86 SE6       30.01F
WATERTOWN      PTCLDY    64  54  69 CALM      30.05R
BROOKINGS      MOCLDY    61  54  77 SE7       30.06S
$$

SDZ017-020-022-023-036>040-048>070-050900-
SOUTHEAST SOUTH DAKOTA

CITY           SKY/WX    TMP DP  RH WIND       PRES   REMARKS
SIOUX FALLS    MOCLDY    65  58  78 E7        30.02F
HURON          MOCLDY     1  32 100 SE7       30.00F WCI -12
CHAMBERLAIN    CLOUDY    64  62  94 E7        29.99S
MITCHELL       CLOUDY    64  62  93 E6        30.01S
YANKTON        CLOUDY    66  63  88 E5        29.99R
$$

ABBREVIATIONS USED IN REMARKS
   TC - TEMPERATURE IN CELSIUS
  WCI - WIND CHILL INDEX
   HX - HEAT INDEX
  VSB - VISIBILITY



USA.gov is the U.S. government's official web portal to all federal, state and local government web resources and services.